Location: Coupvray
(48.8929°N, 2.7967°E)
Time: 21:55:34
(UTC+00:00)

Cosmos 724 - Pass Details

Date: 30 October 2020
Orbit: 851 x 943 km, 65.6° (Epoch: 01 December)

Event Time Altitude Azimuth Distance (km) Brightness Sun altitude
Exits shadow 01:42:32 13° 21° (NNE) 2,416 7.0 -46.0°
Drops below altitude 10° 01:43:21 10° 27° (NNE) 2,615 7.2 -45.9°
Sets 01:46:37 0° 44° (NE) 3,576 8.2 -45.5°
